Powrót do katalogu

HULIANWANG DIGUI-61

AktywnyŁącznośćPO
NORAD 65167·PAYLOAD·🇨🇳 China

Wystrzelony Aug 13, 2025 z Wenchang Space Launch Site

Loading…

Następne Przeloty (najbliższe 24 godziny)

TLE

ŚwieżeSource: Space-Track

Epoka: Sep 14, 2026, 14:06 UTC

1 65167U 25174D   26257.58757824  .00000015  00000-0  80397-6 0  9991
2 65167  86.4979 221.8491 0002363  82.4566 277.6836 13.24399736 52623

Śledź HULIANWANG DIGUI-61 w czasie rzeczywistym z AllMySat

Download on the App Store